ftp/pub/mcmurdo/arrivalheights/2008/March/080328.txt
3/28/08
Time Wind Dir Wind Spd Wind Gust Hum In Humidity Temp In Temp Raw Barom Tot Rain
° kts kts % % °C °C mb mm
0:00 3 1 3 32 100 20.1 -17.6 971.60 0.00
0:20 4 1 3 25 100 20.6 -16.8 971.46 0.00
0:40 3 3 4 22 100 19.9 -17.3 971.19 0.00
1:00 3 3 3 28 100 19.7 -16.3 970.78 0.00
1:20 3 3 3 31 100 19.9 -16.5 970.72 0.00
1:40 0 3 4 28 100 20.2 -16.8 970.55 0.00
2:00 315 4 5 24 100 20.7 -15.8 970.31 0.00
2:20 313 6 7 22 100 20.5 -15.3 969.97 0.00
2:40 314 7 10 25 100 19.6 -15.1 969.77 0.00
3:00 349 11 11 29 100 19.4 -15.3 969.53 0.00
3:20 332 10 10 31 100 19.3 -15.2 969.26 0.00
3:40 334 10 10 26 100 19.4 -15.1 969.06 0.00
4:00 333 10 10 22 100 19.7 -15.3 968.95 0.00
4:20 328 9 10 25 100 19.7 -15.2 968.75 0.00
4:40 335 9 11 29 100 19.7 -15.1 968.58 0.00
5:00 319 9 11 32 100 19.7 -15.3 968.21 0.00
5:20 89 1 2 25 100 19.9 -16.2 968.38 0.00
5:40 335 8 10 22 100 20.3 -17.4 968.04 0.00
6:00 337 11 15 27 100 20.3 -15.1 967.57 0.00
6:20 10 4 5 30 100 20.2 -15.3 967.77 0.00
6:40 344 9 10 31 100 20.3 -16.9 967.50 0.00
7:00 329 11 13 25 100 20.4 -14.7 967.36 0.00
7:20 0 1 7 22 100 20.6 -15.0 967.33 0.00
7:40 335 5 10 22 100 19.7 -14.9 967.19 0.00
8:00 304 3 4 28 100 19.4 -15.0 967.06 0.00
8:20 10 5 6 31 100 19.6 -17.3 966.89 0.00
8:40 7 6 6 26 100 19.9 -18.0 966.72 0.00
9:00 19 5 7 22 100 20.4 -18.6 966.75 0.00
9:20 26 4 5 26 100 20.6 -18.4 966.65 0.00
9:40 5 14 14 29 100 20.7 -18.6 966.38 0.00
10:00 24 16 16 29 100 20.7 -18.3 966.48 0.00
10:20 36 19 22 25 100 20.6 -20.1 966.52 0.00
10:40 34 21 23 21 100 20.3 -20.6 966.62 0.00
11:00 35 17 23 18 100 19.8 -21.2 966.62 0.00
11:20 34 24 25 17 100 19.3 -21.3 966.52 0.00
11:40 38 23 25 16 100 18.7 -21.2 966.52 0.00
12:00 39 22 24 16 100 18.6 -20.6 966.28 0.00
12:20 40 20 26 17 100 18.8 -21.0 966.31 0.00
12:40 44 23 25 20 100 19.2 -21.1 965.87 0.00
13:00 44 20 24 22 100 19.1 -19.4 966.01 0.00
13:20 42 28 28 24 100 18.9 -19.2 965.87 0.00
13:40 43 24 26 25 100 18.8 -17.9 965.84 0.00
14:00 42 23 23 27 100 18.8 -17.3 965.94 0.00
14:20 43 22 25 27 100 18.7 -17.6 965.97 0.00
14:40 44 17 25 27 100 18.6 -18.1 966.01 0.00
15:00 46 24 24 28 100 18.6 -18.4 966.04 0.00
15:20 38 17 26 25 100 18.6 -18.6 966.14 0.00
15:40 40 27 27 20 100 18.8 -19.1 966.01 0.00
16:00 46 23 24 23 100 18.7 -19.0 966.04 0.00
16:20 48 23 23 26 100 18.6 -18.4 966.14 0.00
16:40 43 23 26 27 100 18.5 -18.3 965.94 0.00
17:00 36 21 26 28 100 18.4 -20.4 966.24 0.00
17:20 22 19 24 29 100 18.4 -20.4 966.35 0.00
17:40 30 20 25 25 100 18.7 -19.3 966.48 0.00
18:00 36 19 20 21 100 19.0 -19.7 966.58 0.00
18:20 28 14 18 25 100 19.1 -18.8 966.62 0.00
18:40 40 20 24 28 100 19.1 -19.9 966.65 0.00
19:00 35 17 23 29 100 19.1 -19.5 966.72 0.00
19:20 25 14 20 30 100 19.2 -18.3 966.92 0.00
19:40 28 19 23 23 100 19.4 -17.1 967.02 0.00
20:00 28 17 20 22 100 19.7 -17.2 966.96 0.00
20:20 28 17 20 27 100 19.6 -17.6 967.02 0.00
20:40 35 20 22 29 100 19.7 -17.1 967.26 0.00
21:00 38 18 22 30 100 19.7 -17.2 967.26 0.00
21:20 33 20 20 28 100 19.8 -17.3 967.29 0.00
21:40 38 19 22 23 100 20.1 -17.3 967.50 0.00
22:00 40 17 21 25 100 20.1 -17.4 967.70 0.00
22:20 39 22 24 27 100 20.0 -19.6 967.63 0.00
22:40 39 23 25 28 100 19.9 -19.9 967.70 0.00
23:00 40 21 25 29 100 19.8 -19.9 967.74 0.00
23:20 42 17 25 29 100 19.7 -20.1 967.74 0.00
23:40 37 20 23 30 100 19.6 -20.1 968.07 0.00


